Change the Weather History Date:

Friday, March 8, 2013

  Actual Average Record
Temperature  
Mean Temperature 47 °F -  
Max Temperature 53 °F 67 °F 84 °F (1972)
Min Temperature 39 °F 37 °F 24 °F (1956)
Degree Days  
Heating Degree Days 18    
Growing Degree Days 0 (Base 50)    
Moisture  
Dew Point 36 °F    
Average Humidity 66    
Maximum Humidity 87    
Minimum Humidity 41    
Precipitation  
Precipitation 0.10 in - - ()
Sea Level Pressure  
Sea Level Pressure 29.79 in    
Wind  
Wind Speed 10 mph (SSW)    
Max Wind Speed 21 mph    
Max Gust Speed 26 mph    
Visibility 10 miles    
Events      
Averages and records for this station are not official NWS values.
T = Trace of Precipitation, MM = Missing Value Source: NWS Daily Summary

Daily Weather History Graph

Daily Weather History Graph

Search for Another Location

Airport or City:

Trip Planner

Search our weather history database for the weather conditions in past years. The results will help you decide how hot, cold, wet, or windy it might be!

Date:

Astronomy

Mar. 08, 2013 Rise Set
Actual Time 6:55 AM MST 6:35 PM MST
Civil Twilight 6:29 AM MST 7:01 PM MST
Nautical Twilight 5:59 AM MST 7:31 PM MST
Astronomical Twilight 5:28 AM MST 8:01 PM MST
Moon 4:38 AM MST (3/8) 3:38 PM MST (3/8)
Length of Visible Light 12h 32m
Length of Day
11h 40m
Waning Crescent, 11% of the Moon is Illuminated
Mar 8
Waning Crescent
Mar 11
New
Mar 19
First Quarter
Mar 27
Full
Apr 2
Last Quarter

Hourly Weather History & Observations

Time (MST) Temp. Windchill Dew Point Humidity Pressure Visibility Wind Dir Wind Speed Gust Speed Precip Events Conditions
12:15 AM 51.8 °F - 28.4 °F 41% 29.86 in 10.0 mi SE 5.8 mph - N/A   Mostly Cloudy
12:35 AM 51.8 °F - 28.4 °F 41% 29.87 in 10.0 mi SSE 10.4 mph - N/A   Mostly Cloudy
12:55 AM 51.8 °F - 28.4 °F 41% 29.88 in 10.0 mi SE 6.9 mph - N/A   Overcast
1:15 AM 51.8 °F - 28.4 °F 41% 29.87 in 10.0 mi ESE 8.1 mph - N/A   Overcast
1:35 AM 51.8 °F - 28.4 °F 41% 29.86 in 10.0 mi SE 10.4 mph - N/A   Overcast
1:55 AM 51.8 °F - 28.4 °F 41% 29.86 in 10.0 mi SSE 12.7 mph - N/A   Scattered Clouds
2:15 AM 53.6 °F - 30.2 °F 41% 29.85 in 10.0 mi SSE 18.4 mph - N/A   Mostly Cloudy
2:35 AM 53.6 °F - 32.0 °F 44% 29.85 in 10.0 mi SE 15.0 mph - N/A   Overcast
2:55 AM 53.6 °F - 32.0 °F 44% 29.84 in 10.0 mi SE 15.0 mph - N/A   Overcast
3:15 AM 53.6 °F - 32.0 °F 44% 29.84 in 10.0 mi SE 13.8 mph - N/A   Mostly Cloudy
3:35 AM 53.6 °F - 30.2 °F 41% 29.83 in 10.0 mi SE 12.7 mph - N/A   Clear
3:55 AM 53.6 °F - 32.0 °F 44% 29.83 in 10.0 mi ESE 12.7 mph - N/A   Mostly Cloudy
4:15 AM 51.8 °F - 32.0 °F 47% 29.82 in 10.0 mi ESE 12.7 mph - N/A   Mostly Cloudy
4:35 AM 51.8 °F - 33.8 °F 50% 29.82 in 10.0 mi ESE 11.5 mph - N/A   Mostly Cloudy
4:55 AM 51.8 °F - 33.8 °F 50% 29.82 in 10.0 mi SE 11.5 mph - N/A   Overcast
5:15 AM 51.8 °F - 33.8 °F 50% 29.81 in 10.0 mi SSE 20.7 mph - N/A   Overcast
5:35 AM 51.8 °F - 33.8 °F 50% 29.82 in 10.0 mi SSE 12.7 mph - N/A   Overcast
6:15 AM 48.2 °F - 37.4 °F 66% 29.82 in 7.0 mi South 12.7 mph 24.2 mph N/A   Mostly Cloudy
6:55 AM 46.4 °F 44.3 °F 39.2 °F 76% 29.82 in 10.0 mi SSE 4.6 mph - N/A   Overcast
7:15 AM 46.4 °F 45.2 °F 39.2 °F 76% 29.81 in 10.0 mi East 3.5 mph - N/A   Overcast
7:35 AM 46.4 °F 40.7 °F 41.0 °F 81% 29.81 in 10.0 mi NE 12.7 mph - N/A   Overcast
7:55 AM 46.4 °F 41.1 °F 39.2 °F 76% 29.80 in 10.0 mi NE 11.5 mph - N/A   Mostly Cloudy
8:15 AM 46.4 °F 39.8 °F 39.2 °F 76% 29.80 in 10.0 mi NE 16.1 mph 20.7 mph N/A   Mostly Cloudy
8:35 AM 46.4 °F 41.1 °F 39.2 °F 76% 29.80 in 10.0 mi ENE 11.5 mph 18.4 mph N/A   Overcast
8:55 AM 46.4 °F 41.5 °F 39.2 °F 76% 29.80 in 10.0 mi ENE 10.4 mph - 0.01 in   Overcast
9:15 AM 46.4 °F 42.9 °F 39.2 °F 76% 29.80 in 10.0 mi East 6.9 mph - N/A   Overcast
9:35 AM 46.4 °F 42.4 °F 39.2 °F 76% 29.79 in 10.0 mi North 8.1 mph - 0.01 in   Overcast
9:55 AM 46.4 °F 42.4 °F 41.0 °F 81% 29.79 in 10.0 mi North 8.1 mph - 0.01 in   Overcast
10:15 AM 48.2 °F - 41.0 °F 76% 29.78 in 10.0 mi North 9.2 mph - N/A   Overcast
10:35 AM 48.2 °F - 41.0 °F 76% 29.77 in 10.0 mi NW 6.9 mph - N/A   Overcast
10:55 AM 48.2 °F - 41.0 °F 76% 29.77 in 10.0 mi WNW 5.8 mph - N/A   Mostly Cloudy
11:15 AM 48.2 °F - 39.2 °F 71% 29.77 in 10.0 mi WSW 5.8 mph - N/A   Overcast
11:35 AM 50.0 °F - 42.8 °F 76% 29.76 in 10.0 mi West 5.8 mph - N/A   Mostly Cloudy
11:55 AM 51.8 °F - 41.0 °F 67% 29.75 in 10.0 mi SW 3.5 mph - N/A   Mostly Cloudy
12:15 PM 51.8 °F - 41.0 °F 67% 29.74 in 10.0 mi Calm Calm - N/A   Mostly Cloudy
12:35 PM 51.8 °F - 41.0 °F 67% 29.73 in 10.0 mi Calm Calm - N/A   Mostly Cloudy
12:55 PM 51.8 °F - 41.0 °F 67% 29.74 in 10.0 mi WSW 17.3 mph 25.3 mph N/A   Overcast
1:15 PM 46.4 °F 38.7 °F 37.4 °F 71% 29.74 in 10.0 mi West 20.7 mph - N/A   Overcast
1:35 PM 48.2 °F - 39.2 °F 71% 29.72 in 10.0 mi West 19.6 mph - N/A   Mostly Cloudy
1:55 PM 48.2 °F - 39.2 °F 71% 29.72 in 10.0 mi West 18.4 mph 25.3 mph N/A   Clear
2:15 PM 48.2 °F - 37.4 °F 66% 29.72 in 10.0 mi West 18.4 mph 26.5 mph N/A   Mostly Cloudy
2:35 PM 48.2 °F - 37.4 °F 66% 29.72 in 10.0 mi West 17.3 mph - N/A   Mostly Cloudy
2:55 PM 48.2 °F - 39.2 °F 71% 29.72 in 10.0 mi WSW 15.0 mph - N/A   Mostly Cloudy
3:15 PM 50.0 °F - 37.4 °F 62% 29.72 in 10.0 mi West 13.8 mph - N/A   Mostly Cloudy
3:35 PM 50.0 °F - 37.4 °F 62% 29.71 in 10.0 mi West 12.7 mph - N/A   Scattered Clouds
3:55 PM 50.0 °F - 37.4 °F 62% 29.71 in 10.0 mi West 8.1 mph - N/A   Mostly Cloudy
4:15 PM 48.2 °F - 37.4 °F 66% 29.71 in 10.0 mi WSW 10.4 mph - N/A   Overcast
4:35 PM 48.2 °F - 37.4 °F 66% 29.72 in 10.0 mi WSW 10.4 mph - N/A   Overcast
4:55 PM 44.6 °F 36.6 °F 37.4 °F 76% 29.72 in 9.0 mi SSW 19.6 mph - 0.01 in   Overcast
5:15 PM 44.6 °F 39.2 °F 37.4 °F 76% 29.72 in 10.0 mi South 10.4 mph - 0.03 in   Overcast
5:35 PM 44.6 °F 37.4 °F 37.4 °F 76% 29.73 in 10.0 mi West 16.1 mph 21.9 mph 0.03 in   Overcast
5:55 PM 42.8 °F 36.2 °F 37.4 °F 81% 29.74 in 10.0 mi West 12.7 mph - 0.03 in   Overcast
6:15 PM 42.8 °F 36.6 °F 37.4 °F 81% 29.75 in 10.0 mi WSW 11.5 mph - N/A   Overcast
6:35 PM 42.8 °F 36.6 °F 35.6 °F 76% 29.76 in 10.0 mi West 11.5 mph - N/A   Overcast
6:55 PM 42.8 °F 38.6 °F 35.6 °F 76% 29.77 in 10.0 mi WSW 6.9 mph - N/A   Overcast
7:15 PM 42.8 °F 38.6 °F 35.6 °F 76% 29.77 in 10.0 mi West 6.9 mph - N/A   Overcast
7:35 PM 42.8 °F 38.6 °F 35.6 °F 76% 29.78 in 10.0 mi SSW 6.9 mph - N/A   Mostly Cloudy
7:55 PM 42.8 °F 38.0 °F 35.6 °F 76% 29.79 in 10.0 mi South 8.1 mph - 0.01 in   Scattered Clouds
8:15 PM 42.8 °F 40.1 °F 35.6 °F 76% 29.80 in 10.0 mi ESE 4.6 mph - 0.01 in   Mostly Cloudy
8:35 PM 42.8 °F 38.0 °F 35.6 °F 76% 29.80 in 10.0 mi ESE 8.1 mph - 0.01 in   Overcast
8:55 PM 42.8 °F 40.1 °F 35.6 °F 76% 29.81 in 10.0 mi ESE 4.6 mph - 0.01 in   Overcast
9:15 PM 42.8 °F - 35.6 °F 76% 29.82 in 10.0 mi Calm Calm - N/A   Overcast
9:35 PM 42.8 °F - 35.6 °F 76% 29.83 in 10.0 mi Calm Calm - 0.01 in   Overcast
9:55 PM 42.8 °F 35.8 °F 33.8 °F 70% 29.83 in 10.0 mi South 13.8 mph 17.3 mph 0.01 in   Mostly Cloudy
10:15 PM 42.8 °F 35.8 °F 32.0 °F 66% 29.84 in 10.0 mi SSW 13.8 mph - N/A   Mostly Cloudy
10:35 PM 42.8 °F 36.2 °F 32.0 °F 66% 29.84 in 10.0 mi SW 12.7 mph - N/A   Mostly Cloudy
10:55 PM 42.8 °F 38.6 °F 33.8 °F 70% 29.84 in 10.0 mi SW 6.9 mph - N/A   Overcast
11:15 PM 42.8 °F 37.5 °F 33.8 °F 70% 29.85 in 10.0 mi SW 9.2 mph - N/A   Overcast
11:35 PM 41.0 °F 38.0 °F 33.8 °F 76% 29.85 in 10.0 mi North 4.6 mph - 0.01 in   Overcast
11:55 PM 39.2 °F 35.0 °F 35.6 °F 87% 29.85 in 10.0 mi NNE 5.8 mph - 0.01 in   Overcast